Location: Gleizolles
(44.4833°N, 6.7667°E)
Time: 02:21:02
(UTC+00:00)

Vanguard 1 Rocket - Pass Details

Date: 25 June 2024
Orbit: 650 x 4219 km, 34.3° (Epoch: 15 July)

Event Time Altitude Azimuth Distance (km) Brightness Sun altitude
Rises 06:58:03 0° 282° (WNW) 7,563 11.6 30.5°
Reaches altitude 10° 07:03:30 10° 274° (W) 6,894 11.4 31.5°
Maximum altitude 07:23:43 34° 220° (SW) 5,584 11.4 35.1°
Drops below altitude 10° 07:43:29 10° 165° (SSE) 6,660 12.1 38.6°
Sets 07:48:46 0° 156° (SSE) 7,278 12.3 39.6°
